Weather in Bogolyubovo

Russia / Smolensk Oblast     55°30′05″N   32°56′53″E
temp.,
°C
wind,
m/s
gust,
m/s
humid.,
%
clouds,
%
prec.,
mm/h
press.,
hPa
HPBL,
m
25 june, sat
sat2500:00+15ene11821 0.0 101811
03:00+14ne22872 0.0 101911
06:00+16ene23850 0.0 101976
09:00+22ene23635 0.0 1019464
12:00+25e34515 0.0 10191493
15:00+26e34495 0.0 10191595
18:00+25ese34595 0.0 1019955
21:00+20ese22790 0.0 102011
26 june, sun
sun2600:00+17e12845 0.0 102111
03:00+16sse11881 0.0 102211
06:00+18n11840 0.0 102328
09:00+24ne11645 0.0 1023373
12:00+28e014912 0.0 10231387
15:00+29ese014490 0.0 10221711
18:00+28sw115414 0.0 1022855
21:00+22ssw227330 0.0 102211
27 june, mon
mon2700:00+19wnw258977 0.0 102377
03:00+18nw25907 0.0 102388
06:00+19nw278730 0.0 1024172
09:00+24nw2469100 0.0 1023358
12:00+27nw135646 0.0 10231004
15:00+27wnw2462100 0.0 1022156
18:00+29w24597 0.0 1021582
21:00+23nw39755 0.0 1021180
28 june, tue
tue2800:00+20n237718 0.0 102248
03:00+19nne23788 0.0 102254
06:00+19ne248113 0.0 102291
09:00+24ne3461100 0.0 1022423
12:00+27ene335231 0.0 10231293
15:00+27ene445329 0.0 10221593
18:00+24ene3673100 0.4 1022500
21:00+19e388464 0.5 1023169
29 june, wed
wed2900:00+16e397917 0.0 1024188
03:00+13e39757 0.0 1025189
06:00+13e3872100 0.0 1025192
09:00+18e45530 0.0 1025480
12:00+21e44432 0.0 10261199
15:00+22e44423 0.0 10251431
18:00+21e33485 0.0 1025871
21:00+15e34700 0.0 102563